Location: Unspecified
(0.0000°N, 0.0000°E)
Time: 19:56:04
(UTC+00:00)

deb Briz - Pass Details

Date: 19 February 2026
Orbit: 1683 x 2323 km, 64.7° (Epoch: 11 March)

Event Time Altitude Azimuth Distance (km) Brightness Sun altitude
Rises 20:31:05 0° 244° (WSW) 5,755 ? -33.6°
Reaches altitude 10° 20:37:17 10° 266° (W) 4,836 ? -35.1°
Maximum altitude 20:43:12 14° 295° (WNW) 4,533 ? -36.5°
Drops below altitude 10° 20:49:14 10° 323° (NW) 4,902 ? -38.0°
Sets 20:55:50 0° 346° (NNW) 5,885 ? -39.6°
